Regional Weather Roundup
Issued by NWS

Home | Current Version | Previous Version | Text Only | Print | Product List | Glossary Off
Versions: 1 2 3 4 5 6 7 8 9 10 11 12 13 14 15 16 17 18 19 20 21 22 23 24 25 26 27 28 29 30 31 32 33 34 35 36 37 38 39 40 41 42 43 44 45 46 47 48 49 50

468
ASUS43 KLMK 281602
RWRKY
KENTUCKY REGIONAL WEATHER ROUNDUP
NATIONAL WEATHER SERVICE LOUISVILLE KY
1100 AM EST TUE FEB 28 2017

NOTE "FAIR" INDICATES FEW OR NO CLOUDS BELOW 12,000 FEET
WITH NO SIGNIFICANT WEATHER AND/OR OBSTRUCTIONS TO VISIBILITY.

KYZ001>023-026-027-061>063-070>075-281700-
WESTERN AND SOUTH CENTRAL KENTUCKY

CITY           SKY/WX    TMP DP  RH WIND       PRES   REMARKS
PADUCAH        LGT RAIN  63  59  87 S10G18    29.95F
HENDERSON      CLOUDY    61  55  82 S17       29.94F
OWENSBORO      CLOUDY    59  57  93 S13       29.98F FOG
HOPKINSVILLE   CLOUDY    64  60  89 S16G23    30.02S
BOWLING GREEN  CLOUDY    61  57  87 S14G23    30.05S
GLASGOW        NOT AVBL
$$

KYZ024-025-028>034-038-045-046-053-281700-
NORTH CENTRAL KENTUCKY

CITY           SKY/WX    TMP DP  RH WIND       PRES   REMARKS
LOUISVILLE/SDF LGT RAIN  58  55  90 S12       30.01S
LOUISVILLE/LOU LGT RAIN  57  54  89 S7        30.02F
FORT KNOX      LGT RAIN  55  55 100 S9        30.02R FOG
$$

KYZ035>037-039>044-047>052-055>060-089>105-281700-
NORTHEAST KENTUCKY

CITY           SKY/WX    TMP DP  RH WIND       PRES   REMARKS
LEXINGTON      TSTM      55  52  89 SW6       30.10S
COVINGTON      TSTM      50  48  93 SE15      30.06R FOG
FRANKFORT      LGT RAIN  54  51  90 S7        30.05S FOG
$$

KYZ054-064>069-076>088-106>120-281700-
SOUTHEAST KENTUCKY

CITY           SKY/WX    TMP DP  RH WIND       PRES   REMARKS
JACKSON        CLOUDY    55  44  66 VRB3      30.10F
LONDON         CLOUDY    61  49  64 SW13      30.13S
SOMERSET       RAIN      57  52  82 S8        30.12F
MIDDLESBORO    CLOUDY    55  46  73 S9G20     30.18F
MONTICELLO     CLOUDY    62  54  74 VRB7      30.12F
$$





USA.gov is the U.S. government's official web portal to all federal, state and local government web resources and services.